KW1M Weather Reports


Display with metric or nautical units.
time (UTC)temp
F
wind
direction
speed
MPH
gust
MPH
rain 1hr
in
rain 24hr
in
rain mn
in
humidity
%
barometer
mb
20220528004656 71 240 5.0 12.0 0.00 0.00 0.00 83 1008.1
20220528003111 71 245 3.0 13.0 0.00 0.00 0.00 82 1008.2
20220528001557 72 152 5.0 15.0 0.00 0.00 0.00 80 1008.3
20220528000050 72 30 3.0 11.0 0.00 0.00 0.00 79 1008.5
20220527234548 72 179 3.0 10.0 0.00 0.00 0.00 79 1008.6
20220527233051 73 233 2.0 12.0 0.00 0.00 0.00 77 1008.6
20220527231547 73 194 4.0 12.0 0.00 0.00 0.00 76 1008.5
20220527230050 74 150 1.0 9.0 0.00 0.00 0.00 75 1008.7
20220527224544 74 146 3.0 12.0 0.00 0.00 0.00 74 1008.8
20220527223043 75 84 2.0 11.0 0.00 0.00 0.00 73 1009.0
20220527221541 75 270 4.0 13.0 0.00 0.00 0.00 72 1009.0
20220527220042 76 70 6.0 14.0 0.00 0.00 0.00 70 1009.1
20220527214539 77 153 5.0 16.0 0.00 0.00 0.00 68 1009.2
20220527213045 77 145 5.0 14.0 0.00 0.00 0.00 69 1009.2
20220527211542 77 105 4.0 15.0 0.00 0.00 0.00 69 1009.3
20220527210037 78 253 5.0 17.0 0.00 0.00 0.00 68 1009.4
20220527204535 78 146 7.0 15.0 0.00 0.00 0.00 67 1009.4
20220527203037 79 283 6.0 16.0 0.00 0.00 0.00 65 1009.4
20220527201543 79 218 5.0 14.0 0.00 0.00 0.00 65 1009.3
20220527200031 78 153 5.0 21.0 0.00 0.00 0.00 66 1009.6
20220527194528 79 188 8.0 17.0 0.00 0.00 0.00 66 1009.6
20220527193026 79 179 2.0 13.0 0.00 0.00 0.00 71 1009.7
20220527191523 78 280 5.0 10.0 0.00 0.00 0.00 73 1009.9
20220527190025 76 133 4.0 8.0 0.00 0.00 0.00 76 1010.2
20220527184520 76 127 2.0 10.0 0.00 0.00 0.00 77 1010.5
20220527183018 75 130 3.0 10.0 0.00 0.00 0.00 76 1010.7
20220527181509 76 245 1.0 8.0 0.00 0.00 0.00 76 1011.1
20220527180006 75 210 4.0 11.0 0.00 0.00 0.00 77 1011.3
20220527174509 74 200 5.0 11.0 0.00 0.00 0.00 78 1011.4
20220527173002 75 143 4.0 17.0 0.00 0.00 0.00 76 1011.5
20220527171631 74 139 5.0 11.0 0.00 0.00 0.00 78 1011.7
20220527170106 72 200 6.0 12.0 0.00 0.00 0.00 83 1011.8
20220527164551 71 161 4.0 15.0 0.00 0.00 0.00 84 1012.2
20220527163103 71 58 6.0 18.0 0.00 0.00 0.00 85 1012.4
20220527161543 70 112 5.0 13.0 0.00 0.00 0.00 87 1012.6
20220527160041 68 141 2.0 10.0 0.00 0.00 0.00 90 1012.8
20220527154535 68 150 3.0 7.0 0.00 0.00 0.00 90 1013.0
20220527153033 67 293 3.0 10.0 0.00 0.00 0.00 90 1013.1
20220527151531 67 101 2.0 7.0 0.00 0.00 0.00 90 1013.2
20220527150028 67 187 2.0 9.0 0.00 0.00 0.00 90 1013.5
20220527144524 67 226 2.0 6.0 0.00 0.00 0.00 89 1013.7
20220527143024 67 235 2.0 8.0 0.00 0.00 0.00 88 1013.9
20220527141523 67 116 1.0 6.0 0.00 0.00 0.00 87 1013.9
20220527140123 67 127 2.0 8.0 0.00 0.00 0.00 86 1014.0
20220527134526 67 211 5.0 14.0 0.00 0.00 0.00 86 1014.0
20220527133018 67 155 5.0 11.0 0.00 0.00 0.00 85 1014.1
20220527131515 66 125 4.0 9.0 0.00 0.00 0.00 87 1014.2
20220527130012 65 194 2.0 10.0 0.00 0.00 0.00 87 1014.3
20220527124509 65 204 4.0 8.0 0.00 0.00 0.00 88 1014.5
20220527123009 64 169 3.0 6.0 0.00 0.00 0.00 89 1014.6
20220527121506 64 138 3.0 8.0 0.00 0.00 0.00 90 1014.7
20220527120103 63 155 4.0 8.0 0.00 0.00 0.00 90 1014.9
20220527114556 62 141 1.0 7.0 0.00 0.00 0.00 91 1015.0
20220527113114 61 165 1.0 3.0 0.00 0.00 0.00 92 1015.1
20220527111604 60 293 0.0 4.0 0.00 0.00 0.00 93 1015.1
20220527110105 60 120 1.0 4.0 0.00 0.00 0.00 93 1015.2
20220527104553 60 221 3.0 12.0 0.00 0.00 0.00 94 1015.3
20220527103153 59 197 0.0 7.0 0.00 0.00 0.00 94 1015.4
20220527101614 60 124 0.0 5.0 0.00 0.00 0.00 93 1015.5
20220527100050 60 153 2.0 9.0 0.00 0.00 0.00 92 1015.5
20220527094552 60 145 5.0 9.0 0.00 0.00 0.00 90 1015.6
20220527093047 61 224 2.0 6.0 0.00 0.00 0.00 87 1015.4
20220527091600 61 204 2.0 7.0 0.00 0.00 0.00 86 1015.3
20220527090046 61 186 4.0 8.0 0.00 0.00 0.00 85 1015.3
20220527084544 61 203 2.0 7.0 0.00 0.00 0.00 84 1015.5
20220527083051 61 210 4.0 8.0 0.00 0.00 0.00 84 1015.6
20220527081542 61 156 1.0 7.0 0.00 0.00 0.00 83 1015.6
20220527080039 61 159 3.0 10.0 0.00 0.00 0.00 83 1015.9
20220527074542 61 183 4.0 9.0 0.00 0.00 0.00 83 1015.9
20220527073038 62 291 4.0 10.0 0.00 0.00 0.00 83 1016.1
20220527071535 61 152 4.0 11.0 0.00 0.00 0.00 84 1016.3
20220527070034 61 221 4.0 12.0 0.00 0.00 0.00 84 1016.4
20220527064532 61 305 3.0 15.0 0.00 0.00 0.00 85 1016.4
20220527063029 61 235 4.0 12.0 0.00 0.00 0.00 85 1016.5
20220527061539 60 221 3.0 9.0 0.00 0.00 0.00 86 1016.6
20220527060026 59 120 2.0 7.0 0.00 0.00 0.00 86 1016.7
20220527054524 59 195 1.0 6.0 0.00 0.00 0.00 85 1016.9
20220527053023 60 278 3.0 7.0 0.00 0.00 0.00 84 1016.9
20220527051522 60 240 4.0 11.0 0.00 0.00 0.00 84 1017.0
20220527050025 60 278 3.0 18.0 0.00 0.00 0.00 84 1017.3
20220527044517 59 131 6.0 11.0 0.00 0.00 0.00 84 1017.7
20220527043015 59 177 2.0 10.0 0.00 0.00 0.00 83 1017.5
20220527041516 59 119 0.0 5.0 0.00 0.00 0.00 82 1017.4
20220527040010 59 160 0.0 7.0 0.00 0.00 0.00 81 1017.7
20220527034514 60 250 1.0 7.0 0.00 0.00 0.00 79 1017.8
20220527033007 60 276 4.0 12.0 0.00 0.00 0.00 78 1017.9
20220527031507 60 167 1.0 9.0 0.00 0.00 0.00 77 1017.9
20220527030006 61 240 2.0 9.0 0.00 0.00 0.00 76 1018.2
20220527024505 61 165 2.0 10.0 0.00 0.00 0.00 75 1018.6
20220527023005 61 149 2.0 8.0 0.00 0.00 0.00 74 1018.6
20220527021508 61 152 2.0 9.0 0.00 0.00 0.00 74 1018.5
20220527020004 62 152 2.0 10.0 0.00 0.00 0.00 73 1018.5
20220527014502 62 159 5.0 9.0 0.00 0.00 0.00 72 1018.6
20220527013002 62 143 3.0 14.0 0.00 0.00 0.00 71 1018.5
20220527011501 63 204 6.0 13.0 0.00 0.00 0.00 70 1018.5
20220527010103 63 138 5.0 16.0 0.00 0.00 0.00 69 1018.5